View from above orbital plane
|
View from above satellite
|
Ground track
|
The orbit data is extracted from the following two-line orbital elements,
1 15332U 84105B 21018.83973007 .00000068 00000-0 53212-5 0 9993
2 15332 82.5333 41.8918 0021321 8.9561 163.9650 14.83445234939941
Epoch (UTC): | 18 January 2021 20:09:12 |
Eccentricity: | 0.0021321 |
inclination: | 82.5333° |
perigee height: | 603 km |
apogee height: | 633 km |
right ascension of ascending node: | 41.8918° |
argument of perigee: | 8.9561° |
revolutions per day: | 14.83445234 |
mean anomaly at epoch: | 163.9650° |
orbit number at epoch: | 93994 |
The dashed part of the orbit path shows where the satellite is in the earth's shadow,
|
|